Probability
0 0 0 0 0 0 0 0 0 0 0 0 0 0 0 0 0 0 0 0 0 0 0 0 0 0 0 0 0 0 0 0 0 0 0 0 0 0 0 0 0 0 0 0
0 0 0 0 0 0 0 0 0 0 0 0 0 0 0 0 0 0 0 0 0 0 0 0 0 0 0 0 0 0 0 0 0 0 0 0 0 0 0 0 0 0 0 0
0 0 0 0 0 0 0 0 0 0 0 0 0 0 0 0 0 0 0 0 0 0 0 0 0 0 0 0 0 0 0 0 0 0 0 0 0 0 0 0 0 0 0 0
0 0 0 0 0 0 0 0 0 0 0 0 0 0 0 0 0 0 0 0 0 0 0 0 0 0 0 0 0 0 0 0 0 0 0 0 0 0 0 0 0 0 0 0
0 0 0 0 0 0 0 0 0 0 0 0 0 0 0 0 0 0 0 0 0 0 0 0 0 0 0 0 0 0 0 0 0 0 0 0 0 0 0 0 0 0 0 0
0 0 0 0 0 0 0 0 0 0 0 0 0 0 0 0 0 0 0 0 0 0 0 0 0 0 0 0 0 0 0 0 0 0 0 0 0 0 0 0 0 0 0 0
0 0 0 0 0 0 0 0 0 0 0 0 0 0 0 0 0 0 0 0 0 0 0 0 0 0 0 0 0 0 0 0 0 0 0 0 0 0 0 0 0 0 0 0
0 0 0 0 0 0 0 0 0 0 0 0 0 0 0 0 0 0 0 0 0 0 0 0 0 0 0 0 0 0 0 0 0 0 0 0 0 0 0 0 0 0 0 0
0 0 0 0 0 0 0 0 0 0 0 0 0 0 0 0 0 0 0 0 0 0 0 0 0 0 0 0 0 0 0 0 0 0 0 0 0 0 0 0 0 0 0 0
0 0 0 0 0 0 0 0 0 0 0 0 0 0 0 0 0 0 0 0 0 0 0 0 0 0 0 0 0 0 0 0 0 0 0 0 0 0 0 0 0 0 0 0
0 0 0 0 0 0 0 0 0 0 0 0 0 0 0 0 0 0 0 0 0 0 0 0 0 0 0 0 0 0 0 0 0 0 0 0 0 0 0 0 0 0 0 0
0 0 0 0 0 0 0 0 0 0 0 0 0 0 0 0 0 0 0 0 0 0 0 0 0 0 0 0 0 0 0 0 0 0 0 0 0 0 0 0 0 0 0 0
0 0 0 0 0 0 0 0 0 0 0 0 0 0 0 0 0 0 0 0 0 0 0 0 0 0 0 0 0 0 0 0 0 0 0 0 0 0 0 0 0 0 0 0
0 0 0 0 0 0 0 0 0 0 0 0 0 0 0 0 0 0 0 0 0 0 0 0 0 0 0 0 0 0 0 0 0 0 0 0 0 0 0 0 0 0 0 0
0 0 0 0 0 0 0 0 0 0 0 0 0 0 0 0 0 0 0 0 0 0 0 0 0 0 0 0 0 0 0 0 0 0 0 0 0 0 0 0 0 0 0 0
0 0 0 0 0 0 0 0 0 0 0 0 0 0 0 0 0 0 0 0 0 0 0 0 0 0 0 0 0 0 0 0 0 0 0 0 0 0 0 0 0 0 0 0
0 0 0 0 0 0 0 0 0 0 0 0 0 0 0 0 0 0 0 0 0 0 0 0 0 0 0 0 0 0 0 0 0 0 0 0 1 0 0 0 0 0 0 0
0 0 0 0 0 0 0 0 0 0 0 0 0 0 0 0 0 0 0 0 0 0 0 0 0 0 0 0 0 0 0 0 0 0 0 0 0 0 0 0 0 0 0 0
0 0 0 0 0 0 0 0 0 0 0 0 0 0 0 0 0 0 0 0 0 0 0 0 0 0 0 0 0 0 0 0 0 0 0 0 0 0 0 0 0 0 0 0
0 0 0 0 0 0 0 0 0 0 0 0 0 0 0 0 0 0 0 0 0 0 0 0 0 0 0 0 0 0 0 0 0 0 0 0 0 0 0 0 0 0 0 0
0 0 0 0 0 0 0 0 0 0 0 0 0 0 0 0 0 0 0 0 0 0 0 0 0 0 0 0 0 0 0 0 0 0 0 0 0 0 0 0 0 0 0 0
0 0 0 0 0 0 0 0 0 0 0 0 0 0 0 0 0 0 0 0 0 0 0 0 0 0 0 0 0 0 0 0 0 0 0 0 0 0 0 0 0 0 0 0
0 0 0 0 0 0 0 0 0 0 0 0 0 0 0 0 0 0 0 0 0 0 0 0 0 0 0 0 0 0 0 0 0 0 0 0 0 0 0 0 0 0 0 0
0 0 0 0 0 0 0 0 0 0 0 0 0 0 0 0 0 0 0 0 0 0 0 0 0 0 0 0 0 0 0 0 0 0 0 0 0 0 0 0 0 0 0 0
0 0 0 0 0 0 0 0 0 0 0 0 0 0 0 0 0 0 0 0 0 0 0 0 0 0 0 0 0 0 0 0 0 0 0 0 0 0 0 0 0 0 0 0
0 0 0 0 0 0 0 0 0 0 0 0 0 0 0 0 0 0 0 0 0 0 0 0 0 0 0 0 0 0 0 0 0 0 0 0 0 0 0 0 0 0 0 0
Wind_Speed
1 2 2 3 3 2 2 4 6 3 0 4 8 9 7 7 8 7 7 5 5 4 3 2 2 1 1 1 2 3 3 4 4 3 3 3 3 4 4 4 6 6 6 7
3 2 1 1 2 3 4 5 5 2 1 4 7 10 8 8 9 8 7 6 6 4 3 3 2 2 1 1 1 2 3 3 4 3 3 3 3 3 3 3 4 6 6 6
3 2 1 3 3 3 4 6 5 4 2 3 6 8 6 5 6 6 6 6 5 5 5 4 3 2 2 1 0 1 2 3 3 4 3 3 2 2 3 4 4 6 6 6
1 1 2 3 3 4 5 2 3 4 5 4 3 7 5 5 6 7 7 6 5 5 4 4 3 3 2 1 0 0 1 2 3 3 3 4 4 4 5 4 4 5 5 6
2 2 3 3 2 3 1 0 2 4 5 6 6 7 5 4 7 7 7 6 6 5 5 4 4 3 2 1 1 0 1 1 2 3 3 4 4 4 4 4 5 5 5 5
1 1 1 1 1 1 2 1 2 2 3 7 5 8 6 4 5 4 5 6 5 5 5 4 3 2 2 1 1 0 0 1 2 2 3 4 5 5 5 5 5 5 4 5
2 3 1 1 3 3 3 3 3 4 5 5 3 7 7 1 2 3 4 5 5 4 4 4 3 3 2 1 1 1 1 1 2 3 3 4 5 5 5 5 5 6 5 5
4 4 4 2 2 3 4 4 4 5 6 3 4 8 3 1 0 2 3 4 4 4 4 3 3 3 2 2 1 1 1 2 2 3 4 4 4 4 4 5 5 5 5 5
4 3 3 1 1 2 4 4 2 3 4 7 7 6 5 3 2 3 4 4 4 3 3 3 2 2 2 1 1 1 2 2 3 3 4 4 4 5 5 5 5 5 5 6
2 3 1 1 2 0 2 3 3 4 5 8 7 7 4 4 5 5 5 4 3 2 2 2 2 2 1 1 1 1 2 2 3 3 4 4 5 5 6 5 6 6 7 7
2 3 2 3 6 5 4 4 5 4 4 6 7 4 1 2 3 4 4 3 2 2 2 2 2 2 1 1 1 1 2 2 3 3 4 5 5 6 6 5 6 6 6 7
2 3 4 4 0 2 4 5 6 5 5 5 7 5 3 0 1 2 2 2 2 1 1 1 2 2 2 2 1 2 2 3 3 4 4 5 5 6 6 6 6 7 7 7
4 4 3 3 3 3 4 5 5 3 3 6 8 7 3 1 1 2 3 3 2 2 2 2 2 2 2 2 2 2 3 3 4 4 5 5 6 6 7 7 7 7 7 7
2 4 7 8 4 3 6 6 7 8 7 9 12 12 7 5 5 4 4 4 3 2 3 3 3 3 3 3 3 3 3 4 4 5 5 6 6 6 7 7 7 7 7 8
3 5 6 8 6 5 7 9 10 13 12 12 12 12 12 8 6 4 4 4 3 3 3 4 4 4 3 3 3 3 4 4 4 5 6 6 6 6 7 7 7 7 8 8
3 5 3 6 5 6 9 12 13 14 14 15 15 15 8 5 3 4 4 4 4 4 4 4 4 4 4 4 4 4 4 4 5 6 6 6 6 6 7 7 8 8 8 8
5 5 4 6 2 4 10 10 12 9 9 9 12 10 4 4 5 5 5 4 4 4 5 5 5 4 4 4 4 5 5 5 5 6 6 5 6 7 7 7 8 8 8 8
6 5 3 3 2 10 3 2 5 8 8 9 8 5 5 5 5 5 4 4 4 5 5 5 4 4 4 4 4 5 5 5 5 6 6 6 6 7 7 8 8 8 8 8
5 5 4 3 6 10 4 3 4 6 7 6 9 8 6 3 4 4 3 3 4 4 4 4 4 4 4 4 4 4 5 5 5 6 6 6 7 7 8 8 8 8 8 8
2 3 4 4 6 9 2 3 2 3 6 3 5 5 4 2 4 2 1 2 3 3 3 3 3 4 4 4 4 4 5 5 6 6 7 7 7 7 8 8 8 8 8 8
4 5 7 8 8 8 0 3 4 5 2 1 3 3 4 4 4 3 2 3 3 3 3 3 3 4 4 3 4 5 5 6 6 7 7 7 7 7 8 8 7 7 7 8
7 7 7 6 8 8 4 6 6 2 2 0 1 2 3 3 3 3 3 4 4 4 4 3 3 4 4 3 4 5 6 6 6 6 7 7 7 7 6 7 7 7 7 7
7 6 5 7 5 1 3 3 1 1 2 2 2 2 2 3 3 3 4 4 4 4 4 3 4 4 4 3 4 5 6 5 6 6 7 7 7 6 6 6 7 6 6 6
3 1 3 5 6 4 3 3 2 2 3 3 3 3 3 3 4 4 4 4 4 4 4 4 4 4 5 4 5 5 5 5 5 6 6 6 6 6 6 5 5 5 5 6
3 4 4 6 5 4 4 4 3 2 2 2 2 2 3 3 4 4 4 4 4 4 4 4 4 5 6 5 5 5 5 5 5 6 6 6 5 5 5 5 5 6 6 6
3 5 5 5 3 3 4 3 3 3 2 2 2 3 3 3 4 4 4 4 4 4 4 4 5 5 6 6 6 5 5 5 5 5 5 4 4 4 4 5 5 7 8 11
Wind_Direction
40 173 196 205 228 264 225 235 255 262 189 258 250 256 244 218 213 215 213 206 209 201 179 158 152 138 111 64 38 23 18 15 12 6 356 354 4 1 9 12 9 3 360 354
168 202 224 178 182 199 215 239 256 255 232 269 273 268 251 221 215 216 216 213 209 194 177 166 165 162 164 143 47 20 13 9 10 6 354 342 341 346 355 359 3 3 357 352
204 109 166 179 183 215 234 246 261 275 291 234 281 261 211 200 208 212 217 213 210 199 192 187 186 183 178 171 38 8 6 1 5 3 2 355 347 340 346 351 354 357 353 350
169 174 180 191 212 239 250 245 252 259 269 259 264 282 221 198 214 215 211 205 207 201 196 194 195 191 187 191 185 74 9 5 8 7 2 358 346 341 337 335 336 339 345 347
169 165 193 216 238 234 264 38 243 252 255 267 230 256 255 178 228 220 208 205 204 200 195 196 196 195 190 187 181 180 30 3 7 7 358 341 333 331 328 329 329 334 340 343
110 115 280 243 84 158 140 157 166 198 231 251 229 235 260 200 219 203 198 197 194 193 193 195 191 184 182 172 164 260 329 348 354 351 344 338 332 327 326 330 329 331 331 332
194 176 153 171 155 155 201 237 259 241 229 247 150 237 257 196 208 205 197 191 185 187 192 194 197 199 194 189 198 237 282 321 332 332 329 323 325 319 317 321 322 324 322 323
227 222 176 185 219 205 204 241 255 271 274 278 210 243 260 104 236 209 197 195 190 192 200 205 206 213 213 208 221 244 280 308 320 322 325 322 321 317 313 316 315 312 311 313
230 223 109 131 325 223 193 212 295 278 280 270 248 254 261 202 226 204 192 189 199 202 209 217 216 221 224 218 243 267 280 303 316 320 323 321 320 320 314 312 311 308 310 311
223 243 186 151 177 163 290 171 186 219 259 268 262 253 252 212 216 197 193 191 198 200 211 222 228 238 241 259 282 288 277 289 300 309 316 314 314 315 310 306 307 309 310 311
217 225 204 201 211 207 179 194 217 226 254 264 276 261 57 228 200 195 192 187 194 206 222 235 245 254 256 260 268 280 283 289 295 303 308 309 310 312 307 302 305 308 307 307
187 224 241 234 346 314 232 219 201 223 231 238 270 277 76 164 170 193 215 221 228 240 241 241 244 243 248 253 272 289 294 287 291 299 302 304 307 307 303 303 305 306 305 305
166 192 244 223 191 190 223 217 214 231 239 230 245 259 92 99 212 229 239 260 264 258 259 258 251 246 250 261 274 287 295 302 301 298 298 299 301 303 302 302 303 303 303 303
196 219 236 256 284 196 219 220 211 211 231 243 244 261 269 266 261 263 261 267 267 259 264 274 276 270 268 271 276 286 296 303 304 297 292 292 295 298 299 300 300 300 300 300
210 242 249 271 278 259 250 240 220 223 235 246 258 261 273 275 271 273 275 267 263 267 276 282 285 281 277 278 284 291 299 302 302 296 286 286 292 293 295 297 298 300 299 299
214 238 246 262 256 254 263 252 236 236 243 248 261 269 282 282 274 267 260 254 256 268 282 288 286 280 276 280 289 294 299 301 299 292 283 283 288 290 292 295 296 297 297 299
202 201 229 259 270 276 257 237 219 217 221 226 242 255 266 269 260 259 259 250 256 276 287 285 279 273 274 279 285 289 295 298 295 292 286 282 286 289 292 295 294 295 297 297
194 195 222 259 254 246 252 79 199 215 230 228 246 265 269 275 288 277 262 249 265 282 290 285 279 276 280 283 287 294 295 292 291 295 297 293 290 290 293 293 293 295 296 295
214 192 207 224 252 267 254 186 181 214 251 224 237 255 270 288 290 264 239 253 271 285 288 285 280 278 281 285 294 291 287 290 292 297 299 300 292 290 291 291 293 294 294 292
160 197 212 216 243 256 258 128 146 192 255 196 217 236 245 238 262 281 10 297 293 299 295 290 289 288 287 292 290 282 285 291 294 298 298 297 294 291 290 289 288 289 290 289
176 195 215 227 243 261 63 139 169 216 282 115 206 220 213 238 280 319 317 309 306 305 298 292 287 282 285 292 285 282 287 289 296 298 296 296 295 292 289 289 287 287 288 291
196 194 203 207 227 246 135 155 200 271 7 321 247 240 245 263 286 297 301 302 306 308 307 299 291 290 294 291 284 285 289 298 302 299 297 297 297 295 292 291 291 288 287 288
218 216 210 209 227 15 160 203 253 310 282 290 279 266 248 264 277 290 297 299 300 303 304 299 288 289 295 291 284 285 295 304 302 301 299 299 298 295 293 291 292 293 290 288
214 252 232 248 259 270 254 258 276 283 286 290 274 260 259 264 273 285 289 293 298 299 302 301 294 294 301 302 295 293 299 300 299 298 299 299 300 300 299 294 290 292 294 293
219 192 226 253 278 297 261 252 259 285 296 296 292 274 256 255 268 276 283 286 287 292 297 297 293 294 300 305 302 304 302 300 298 297 296 299 300 302 302 297 294 292 288 296
202 199 219 252 251 252 274 274 268 262 275 276 279 287 278 262 267 277 281 283 283 285 292 293 293 295 300 304 302 305 305 301 298 298 299 300 301 302 303 303 303 299 300 305